Location: Beetenbrück
(52.8113°N, 9.5946°E)
Time: 21:02:43
(UTC+00:00)

Meteor 1-27 - Pass Details

Date: 14 April 2026
Orbit: 835 x 892 km, 81.3° (Epoch: 12 May)

Event Time Altitude Azimuth Distance (km) Brightness Sun altitude
Exits shadow 23:46:48 81° 164° (SSE) 902 4.1 -27.3°
Maximum altitude 23:47:06 86° 102° (ESE) 893 4.2 -27.3°
Drops below altitude 10° 23:52:54 10° 14° (NNE) 2,538 7.7 -27.1°
Sets 23:55:20 0° 14° (NNE) 3,472 8.7 -27.1°
